Weather History for Asheboro, NC

Change the Weather History Date:

Sunday, March 9, 2014

  Actual Average Record
Temperature  
Mean Temperature 52 °F -  
Max Temperature 65 °F 60 °F 86 °F (1974)
Min Temperature 38 °F 38 °F 20 °F (1943)
Degree Days  
Heating Degree Days 14    
Growing Degree Days 2 (Base 50)    
Moisture  
Dew Point 37 °F    
Average Humidity 64    
Maximum Humidity 95    
Minimum Humidity 30    
Precipitation  
Precipitation 0.00 in - - ()
Sea Level Pressure  
Sea Level Pressure 30.06 in    
Wind  
Wind Speed 0 mph (NW)    
Max Wind Speed 10 mph    
Max Gust Speed -    
Visibility 10 miles    
Events      
Averages and records for this station are not official NWS values.
T = Trace of Precipitation, MM = Missing Value Source: NWS Daily Summary

Daily Weather History Graph

Daily Weather History Graph

Search for Another Location

Airport:

Trip Planner

Search our weather history database for the weather conditions in past years. The results will help you decide how hot, cold, wet, or windy it might be!

Date:

Astronomy

Mar. 09, 2014 Rise Set
Actual Time 7:38 AM EDT 7:21 PM EDT
Civil Twilight 7:13 AM EDT 7:47 PM EDT
Nautical Twilight 6:43 AM EDT 8:16 PM EDT
Astronomical Twilight 6:14 AM EDT 8:46 PM EDT
Moon 1:21 PM EDT (3/9) 3:54 AM EDT (3/9)
Length of Visible Light 12h 34m
Length of Day
11h 43m
First Quarter, 61% of the Moon is Illuminated
Mar 9
First Quarter
Mar 16
Full
Mar 23
Last Quarter
Mar 30
New
Apr 7
First Quarter

Hourly Weather History & Observations

Time (EDT) Temp. Dew Point Humidity Pressure Visibility Wind Dir Wind Speed Gust Speed Precip Events Conditions
12:15 AM 48.2 °F 40.6 °F 75% 30.02 in 10.0 mi Calm Calm - N/A   Clear
12:35 AM 43.9 °F 39.0 °F 83% 30.02 in 10.0 mi Calm Calm - N/A   Clear
12:55 AM 42.6 °F 40.3 °F 91% 30.02 in 10.0 mi Calm Calm - N/A   Clear
1:15 AM 42.6 °F 39.7 °F 90% 30.02 in 10.0 mi Calm Calm - N/A   Clear
1:35 AM 42.3 °F 39.2 °F 89% 30.02 in 10.0 mi Calm Calm - N/A   Clear
1:55 AM 42.4 °F 39.7 °F 90% 30.01 in 10.0 mi Calm Calm - N/A   Clear
3:15 AM 43.0 °F 39.0 °F 86% 30.01 in 10.0 mi Calm Calm - N/A   Clear
3:35 AM 41.7 °F 38.7 °F 89% 30.01 in 10.0 mi Calm Calm - N/A   Clear
3:55 AM 39.6 °F 37.0 °F 91% 30.01 in 10.0 mi Calm Calm - N/A   Clear
4:15 AM 40.5 °F 38.5 °F 93% 30.01 in 10.0 mi Calm Calm - N/A   Clear
4:35 AM 39.2 °F 37.2 °F 93% 30.02 in 10.0 mi Calm Calm - N/A   Clear
4:55 AM 38.3 °F 37.0 °F 95% 30.02 in 10.0 mi Calm Calm - N/A   Clear
5:15 AM 39.6 °F 38.3 °F 95% 30.02 in 10.0 mi Calm Calm - N/A   Clear
5:35 AM 39.6 °F 37.6 °F 93% 30.03 in 10.0 mi Calm Calm - N/A   Clear
5:55 AM 39.4 °F 37.9 °F 95% 30.03 in 10.0 mi Calm Calm - N/A   Clear
6:15 AM 39.4 °F 37.0 °F 91% 30.04 in 10.0 mi Calm Calm - N/A   Clear
6:35 AM 39.6 °F 36.7 °F 89% 30.05 in 10.0 mi Calm Calm - N/A   Clear
6:55 AM 39.0 °F 37.2 °F 93% 30.05 in 10.0 mi Calm Calm - N/A   Scattered Clouds
7:15 AM 39.6 °F 37.4 °F 92% 30.05 in 10.0 mi Calm Calm - N/A   Scattered Clouds
7:35 AM 40.1 °F 37.4 °F 90% 30.06 in 10.0 mi Calm Calm - N/A   Clear
7:55 AM 39.4 °F 37.4 °F 93% 30.07 in 10.0 mi Calm Calm - N/A   Clear
8:15 AM 39.9 °F 37.8 °F 92% 30.08 in 10.0 mi Calm Calm - N/A   Clear
8:35 AM 41.0 °F 38.8 °F 92% 30.09 in 10.0 mi Calm Calm - N/A   Clear
8:55 AM 42.8 °F 38.8 °F 86% 30.10 in 10.0 mi Calm Calm - N/A   Clear
9:15 AM 44.1 °F 40.3 °F 87% 30.10 in 10.0 mi Calm Calm - N/A   Clear
9:35 AM 46.0 °F 40.6 °F 81% 30.11 in 10.0 mi Calm Calm - N/A   Clear
9:55 AM 47.3 °F 42.3 °F 83% 30.11 in 10.0 mi Calm Calm - N/A   Clear
10:15 AM 49.6 °F 38.3 °F 65% 30.11 in 10.0 mi Calm Calm - N/A   Clear
10:35 AM 50.4 °F 37.9 °F 62% 30.11 in 10.0 mi Calm Calm - N/A   Clear
10:55 AM 51.8 °F 37.6 °F 58% 30.12 in 10.0 mi Calm Calm - N/A   Clear
11:15 AM 54.1 °F 38.7 °F 56% 30.12 in 10.0 mi Calm Calm - N/A   Clear
11:35 AM 57.0 °F 39.6 °F 52% 30.12 in 10.0 mi NW 3.5 mph - N/A   Clear
11:55 AM 58.1 °F 40.1 °F 51% 30.11 in 10.0 mi Calm Calm - N/A   Clear
12:15 PM 59.9 °F 37.6 °F 44% 30.11 in 10.0 mi NW 6.9 mph - N/A   Clear
12:35 PM 60.1 °F 36.9 °F 42% 30.11 in 10.0 mi NNW 5.8 mph - N/A   Clear
12:55 PM 60.4 °F 35.8 °F 40% 30.10 in 10.0 mi Calm Calm - N/A   Clear
1:15 PM 61.0 °F 35.4 °F 38% 30.10 in 10.0 mi North 5.8 mph - N/A   Clear
1:35 PM 61.0 °F 35.8 °F 39% 30.10 in 10.0 mi Calm Calm - N/A   Clear
1:55 PM 62.1 °F 36.0 °F 38% 30.09 in 10.0 mi Calm Calm - N/A   Clear
2:15 PM 61.9 °F 35.4 °F 37% 30.08 in 10.0 mi Calm Calm - N/A   Clear
2:35 PM 62.6 °F 35.2 °F 36% 30.08 in 10.0 mi Calm Calm - N/A   Clear
2:55 PM 64.0 °F 34.7 °F 34% 30.07 in 10.0 mi Calm Calm - N/A   Clear
3:15 PM 64.2 °F 32.5 °F 31% 30.06 in 10.0 mi Calm Calm - N/A   Clear
3:35 PM 64.4 °F 32.4 °F 30% 30.06 in 10.0 mi West 10.4 mph - N/A   Clear
3:55 PM 63.5 °F 32.0 °F 31% 30.06 in 10.0 mi Calm Calm - N/A   Clear
4:15 PM 64.8 °F 32.7 °F 30% 30.05 in 10.0 mi Calm Calm - N/A   Clear
4:35 PM 65.5 °F 32.9 °F 30% 30.05 in 10.0 mi Calm Calm - N/A   Clear
4:55 PM 65.1 °F 33.3 °F 31% 30.05 in 10.0 mi Calm Calm - N/A   Clear
5:15 PM 64.8 °F 33.8 °F 32% 30.05 in 10.0 mi Calm Calm - N/A   Clear
5:35 PM 64.8 °F 33.8 °F 32% 30.05 in 10.0 mi Calm Calm - N/A   Clear
5:55 PM 64.8 °F 33.6 °F 31% 30.04 in 10.0 mi Calm Calm - N/A   Clear
6:15 PM 64.9 °F 32.9 °F 30% 30.04 in 10.0 mi Calm Calm - N/A   Clear
6:35 PM 64.8 °F 32.5 °F 30% 30.04 in 10.0 mi Calm Calm - N/A   Clear
6:55 PM 64.2 °F 32.9 °F 31% 30.04 in 10.0 mi Calm Calm - N/A   Clear
7:15 PM 63.0 °F 34.3 °F 34% 30.04 in 10.0 mi Calm Calm - N/A   Clear
7:35 PM 57.7 °F 37.4 °F 47% 30.04 in 10.0 mi Calm Calm - N/A   Clear
7:55 PM 56.5 °F 36.5 °F 47% 30.04 in 10.0 mi Calm Calm - N/A   Clear
8:15 PM 55.2 °F 36.3 °F 49% 30.04 in 10.0 mi Calm Calm - N/A   Clear
8:35 PM 54.7 °F 36.5 °F 50% 30.04 in 10.0 mi Calm Calm - N/A   Clear
8:55 PM 52.3 °F 36.9 °F 56% 30.04 in 10.0 mi Calm Calm - N/A   Clear
9:15 PM 51.1 °F 36.9 °F 58% 30.04 in 10.0 mi Calm Calm - N/A   Clear
9:35 PM 50.0 °F 37.0 °F 61% 30.04 in 10.0 mi Calm Calm - N/A   Clear
9:55 PM 48.2 °F 36.5 °F 64% 30.05 in 10.0 mi Calm Calm - N/A   Clear
10:15 PM 47.1 °F 37.2 °F 68% 30.05 in 10.0 mi Calm Calm - N/A   Clear
10:35 PM 46.6 °F 37.6 °F 71% 30.05 in 10.0 mi Calm Calm - N/A   Clear
10:55 PM 46.8 °F 36.3 °F 67% 30.05 in 10.0 mi Calm Calm - N/A   Clear
11:15 PM 45.9 °F 37.6 °F 73% 30.06 in 10.0 mi Calm Calm - N/A   Clear
11:35 PM 45.0 °F 37.0 °F 74% 30.06 in 10.0 mi Calm Calm - N/A   Clear
11:55 PM 44.6 °F 36.7 °F 74% 30.06 in 10.0 mi Calm Calm - N/A   Clear
12:15 AM 43.7 °F 36.9 °F 77% 30.06 in 10.0 mi Calm Calm - N/A   Clear
12:35 AM 43.0 °F 36.5 °F 78% 30.06 in 10.0 mi Calm Calm - N/A   Clear
12:55 AM 42.8 °F 35.2 °F 75% 30.06 in 10.0 mi Calm Calm - N/A   Clear